Terug naar catalogus

HULIANWANG DIGUI-73

ActiefCommunicatieLEO
NORAD 65305·PAYLOAD·🇨🇳 China

Gelanceerd Aug 25, 2025 vanaf Wenchang Space Launch Site

Loading…

Volgende Passages (komende 24 uur)

TLE

VersSource: Space-Track

Epoch: Sep 14, 2026, 12:37 UTC

1 65305U 25187A   26257.52580325 -.00000093  00000-0  67916-4 0  9990
2 65305  50.0037 245.4739 0000660 335.8423  24.2418 13.29326314 51584

Volg HULIANWANG DIGUI-73 in realtime met AllMySat

Download on the App Store